Presure
162 154 85 95 123 91 85 150 115 149 109 98 90 108 113 113 117 93 98 118 161 171 177 140 143 165 143 158 169 173 172 136 150 143 131 123 113 139 162 133 137 113 139
173 175 172 172 89 173 90 107 167 94 106 90 131 124 171 99 125 178 94 159 156 168 167 179 93 93 89 107 92 95 118 163 178 153 124 147 160 100 107 109 100 122 117
164 170 174 166 127 101 99 86 182 95 96 108 115 104 89 102 90 98 101 103 93 162 164 104 100 105 108 87 102 156 167 153 89 89 159 145 150 110 89 114 95 117 108
175 173 174 160 173 149 172 179 92 183 110 115 178 97 94 124 117 94 104 101 104 90 127 86 83 85 84 140 139 91 91 92 126 91 91 95 95 100 117 132 94 133 92
172 178 171 102 158 183 187 172 116 143 89 128 159 102 111 154 123 97 93 103 102 105 171 138 162 96 84 88 93 91 92 94 90 96 144 93 101 120 94 93 91 92 94
158 174 179 163 172 162 180 170 162 157 162 82 182 182 180 128 87 101 149 89 159 100 181 101 106 158 159 140 98 110 99 157 84 89 90 102 161 94 145 164 100 90 113
176 166 182 162 165 165 163 170 175 163 167 145 84 171 178 99 147 158 180 123 96 114 97 88 96 156 93 135 158 168 162 164 101 165 147 93 89 91 95 90 97 96 106
185 176 171 175 170 169 183 174 168 169 167 166 90 87 86 89 116 101 170 102 95 99 80 93 89 86 100 87 127 107 156 155 160 129 110 93 97 158 143 131 112 97 126
172 172 175 181 182 180 159 95 184 182 171 172 170 168 88 85 89 86 101 97 90 100 97 94 86 94 95 95 90 89 130 136 107 157 98 165 144 165 149 156 165 111 151
165 168 173 171 172 171 177 178 183 106 180 183 182 171 169 120 166 162 88 90 80 83 101 87 95 87 86 84 87 96 129 99 91 88 165 167 90 92 90 94 149 89 93
171 167 168 170 171 169 179 170 172 181 188 144 176 173 180 180 177 169 114 88 92 102 106 111 168 90 96 93 96 95 92 93 84 93 93 92 96 94 121 111 152 150 155
176 175 175 176 174 165 167 169 174 172 156 156 176 143 153 183 181 77 120 176 136 119 163 87 164 168 134 183 95 92 117 92 94 89 90 85 85 91 90 88 141 160 161
175 176 177 178 176 180 182 178 176 172 175 178 178 155 158 96 178 180 184 187 164 169 174 98 93 163 168 135 181 177 94 160 96 91 91 83 82 92 92 98 136 163 147
138 142 190 186 184 182 182 183 183 182 180 181 183 177 174 177 147 172 176 135 178 180 171 127 167 165 83 81 171 171 179 111 184 111 93 87 84 91 83 152 167 139 134
212 217 187 163 140 169 195 195 198 197 207 206 213 202 199 191 197 180 149 199 90 143 174 172 176 173 158 165 173 120 85 87 125 112 88 171 122 129 126 133 163 163 153
201 201 202 203 207 208 211 187 147 159 176 179 183 193 199 200 198 198 201 202 143 214 214 115 117 168 177 168 171 167 176 163 171 191 164 184 183 179 169 158 155 158 117
203 200 202 203 201 202 204 210 213 205 151 182 158 174 222 181 182 188 226 195 195 197 195 208 207 207 93 169 173 179 165 162 180 128 120 133 167 187 174 178 174 125 124
224 226 227 198 199 201 204 205 230 239 214 211 215 216 206 207 210 204 232 184 183 200 193 193 198 195 214 216 118 93 92 177 165 115 105 113 126 184 166 185 184 143 132
212 215 215 217 217 205 207 223 229 226 218 234 229 210 234 172 203 237 217 183 208 225 215 187 193 189 197 191 215 229 235 221 189 93 95 95 96 97 98 102 136 142 141
205 182 208 217 219 207 216 219 202 207 217 229 227 227 229 216 220 212 195 239 220 212 201 216 217 184 191 192 197 210 228 230 240 239 195 159 168 175 184 174 99 97 102
210 207 207 205 206 207 204 220 218 214 218 205 224 237 218 227 234 206 238 212 211 230 216 225 203 217 234 189 193 195 208 222 223 234 237 210 181 176 178 181 185 180 179
205 205 186 195 196 203 206 210 207 219 211 210 212 219 225 233 224 227 221 213 218 211 235 205 232 215 212 230 189 189 190 199 217 223 226 146 230 182 179 180 179 188 184
221 216 218 210 200 203 203 206 208 211 215 219 223 216 202 219 223 233 225 227 203 230 198 221 233 215 213 208 217 224 184 186 194 207 218 222 232 192 149 166 155 182 166
196 180 219 219 214 217 215 213 216 202 205 207 213 210 219 215 212 190 205 229 220 221 229 207 211 207 196 253 211 207 221 185 190 189 202 212 216 223 231 235 160 168 165
226 244 236 221 220 215 213 219 218 218 209 213 217 214 190 214 216 217 216 226 230 223 228 230 223 207 202 218 242 214 209 207 219 185 188 194 204 212 217 223 227 228 195
222 228 240 229 222 215 214 215 216 213 208 216 215 216 221 218 221 216 215 209 222 232 229 226 228 233 204 216 225 236 226 197 211 212 223 187 188 194 206 212 214 216 222
Wind_Speed
35 35 28 34 40 33 27 41 36 40 35 28 25 29 32 32 32 20 21 25 37 34 34 25 28 34 29 32 34 38 40 23 32 32 29 18 21 26 35 26 25 16 29
35 34 36 35 32 33 34 36 41 33 33 26 43 44 33 26 41 34 22 39 36 37 37 37 16 16 15 21 16 17 24 34 38 33 28 31 36 12 18 17 15 23 21
38 38 38 38 40 41 38 30 35 35 35 37 40 32 25 33 25 29 30 26 24 39 40 27 27 26 23 15 20 36 40 35 12 13 37 30 35 23 9 23 12 23 20
41 42 42 40 39 46 36 34 37 33 43 49 37 34 30 43 33 29 31 30 28 24 34 19 20 19 17 35 35 20 18 18 26 14 15 17 15 17 25 32 15 35 13
43 44 45 48 44 41 42 40 35 42 34 36 41 38 38 39 50 34 29 33 31 29 47 39 45 28 21 19 22 22 21 22 17 21 40 18 22 29 17 16 15 16 18
45 44 45 46 45 47 44 49 48 46 51 32 41 43 42 40 30 37 40 28 42 31 46 31 34 46 46 40 30 31 28 45 16 16 16 25 40 19 38 46 24 17 26
46 47 46 49 50 50 52 51 52 53 53 50 34 46 45 41 44 47 43 40 36 32 33 27 33 47 30 43 48 53 50 51 29 49 44 21 17 19 22 19 24 24 28
45 50 52 52 54 56 53 57 58 58 58 58 42 38 36 37 40 42 50 42 38 38 26 34 30 27 38 25 43 36 51 51 50 39 32 24 27 47 39 34 34 27 34
53 54 54 54 55 57 55 49 60 63 62 62 60 59 44 37 41 38 41 44 40 44 41 39 31 38 39 36 29 28 43 45 34 53 29 54 47 51 48 48 47 31 49
54 56 57 58 59 59 60 60 61 53 64 65 66 63 63 48 60 59 43 44 35 35 46 35 43 35 31 27 29 34 46 37 30 28 60 57 27 28 27 29 50 24 26
60 59 60 60 61 61 62 62 62 63 63 60 66 65 66 66 65 63 54 46 48 51 47 46 61 42 48 43 46 43 38 37 31 35 33 32 35 34 41 37 53 52 52
64 65 65 65 66 65 65 66 66 66 64 64 68 62 65 69 68 42 53 68 57 53 65 43 65 66 56 66 45 43 50 40 41 35 33 31 30 34 33 30 52 58 55
68 68 68 69 69 70 70 71 70 69 69 70 70 66 67 61 70 70 69 69 68 68 68 54 46 69 69 60 67 67 48 65 47 41 39 32 32 39 38 43 53 62 53
59 61 72 74 74 74 74 74 74 73 73 74 74 75 75 74 68 73 72 69 73 75 72 63 74 74 47 46 72 71 70 50 74 51 46 40 37 43 34 60 67 56 53
64 64 71 72 66 73 78 78 79 80 80 78 78 77 76 76 74 77 71 73 63 72 77 76 77 76 75 77 78 62 45 48 56 52 47 75 54 61 60 56 70 68 60
68 69 71 72 73 73 74 72 70 74 77 77 77 77 77 76 75 75 73 71 73 70 71 70 65 79 81 81 82 79 81 73 74 77 72 77 79 78 76 73 67 68 55
70 72 73 74 75 76 76 77 77 77 73 78 76 78 73 79 80 79 74 77 76 74 74 73 73 69 61 84 83 86 81 76 82 67 65 65 74 80 78 82 81 63 61
54 57 57 73 74 79 80 81 66 63 75 79 77 77 78 78 77 79 71 80 80 78 78 77 75 75 74 76 67 62 63 88 80 69 66 65 66 83 76 83 84 72 68
58 59 61 62 63 79 78 65 64 68 72 65 70 80 71 78 80 69 78 83 78 75 77 81 80 79 78 79 79 76 75 78 93 67 66 63 64 63 61 60 69 71 71
62 68 65 65 66 69 67 67 80 81 74 68 71 71 72 81 79 83 84 70 78 81 83 77 79 85 84 83 82 81 77 77 72 78 96 86 83 85 89 84 61 58 62
68 70 70 71 72 73 76 72 71 73 71 85 71 68 76 74 72 87 73 85 84 79 80 80 85 80 82 87 85 85 84 80 83 77 80 99 94 90 88 89 90 89 89
74 76 74 77 78 79 79 78 78 75 76 78 78 75 73 74 78 79 83 87 85 85 79 87 80 84 85 84 89 88 87 86 84 86 87 81 92 95 95 93 91 95 93
74 77 79 83 85 85 85 86 84 82 81 77 80 82 87 80 80 80 84 85 94 84 94 85 82 88 89 90 87 88 92 91 91 90 88 88 87 85 84 88 83 94 88
72 84 79 82 85 86 88 88 87 89 88 86 86 86 86 88 89 96 91 87 90 93 89 95 93 93 97 85 94 92 91 97 96 95 92 92 92 92 90 91 88 90 87
79 83 83 84 84 86 89 89 90 91 91 92 93 94 97 93 94 92 93 91 92 96 96 95 98 99 101 95 91 97 96 95 96 99 99 98 97 96 95 94 94 97 104
84 88 84 85 88 89 90 92 93 96 97 97 98 98 100 100 100 100 101 98 99 99 100 100 99 97 104 101 96 93 97 100 98 99 101 103 100 99 99 98 98 100 98
Wind_Direction
242 241 230 231 230 219 233 241 238 241 244 230 217 243 249 249 246 236 238 222 240 236 228 221 222 219 236 233 229 224 236 224 226 232 234 232 245 231 228 237 234 237 241
248 246 246 246 230 237 222 232 240 228 238 230 243 248 242 227 251 237 233 238 240 235 234 230 218 221 211 233 235 241 233 235 225 228 239 230 231 260 255 250 268 244 246
246 247 245 244 244 239 232 234 245 228 229 241 247 226 224 236 227 229 232 236 223 235 236 237 243 238 221 232 234 235 230 238 235 265 225 230 231 248 268 245 282 249 268
240 242 242 242 244 242 237 234 238 240 237 249 238 227 227 245 234 231 235 234 233 224 236 225 207 222 230 237 230 246 248 255 242 246 264 267 262 253 246 238 275 241 290
242 240 243 243 246 241 240 240 238 239 234 235 237 234 233 240 251 229 235 232 232 236 234 236 232 246 225 234 240 247 252 249 254 255 233 261 252 244 264 272 278 280 281
250 246 243 249 247 248 240 242 246 237 245 232 234 238 238 240 235 232 238 233 236 231 236 238 241 234 234 237 254 246 252 235 242 251 245 256 239 262 242 239 259 283 263
248 248 246 249 249 248 250 245 239 247 244 246 237 238 233 235 242 248 239 242 235 236 233 235 242 238 245 242 238 235 239 237 252 238 239 257 253 258 259 263 265 269 266
239 240 241 242 242 243 242 242 244 243 245 246 244 243 241 242 239 238 242 237 240 234 238 240 243 241 249 235 240 249 238 243 242 245 252 260 258 241 246 254 261 270 261
242 243 243 243 242 242 243 244 240 240 245 245 245 246 244 241 242 242 241 239 241 237 236 237 245 247 249 250 248 244 242 242 247 246 249 241 243 242 243 241 247 260 250
252 251 248 249 247 248 246 247 248 241 245 244 244 247 247 241 245 246 245 245 246 245 239 246 240 249 248 244 247 237 241 247 253 248 244 244 260 263 265 268 245 264 263
250 250 250 250 250 251 250 252 252 248 248 247 250 251 249 247 246 247 244 241 243 245 246 247 246 250 246 251 252 250 253 252 251 254 255 257 259 263 254 253 247 249 247
252 252 252 252 251 250 250 250 250 250 250 248 249 246 247 249 249 236 240 245 243 241 247 245 249 247 247 243 254 254 247 254 252 254 256 256 257 261 262 262 251 247 247
254 254 254 254 255 254 254 253 253 252 252 250 249 250 249 247 249 248 246 244 246 245 243 242 240 249 248 247 246 244 255 243 256 256 260 255 256 264 266 265 247 247 249
259 260 256 257 257 257 256 256 255 254 252 252 251 250 250 248 249 248 247 248 246 244 244 244 243 247 244 249 247 245 245 247 242 253 260 259 259 265 259 249 249 248 249
260 261 257 257 259 257 257 257 258 258 259 258 259 256 254 253 252 248 249 251 250 248 246 245 245 241 250 249 247 250 250 253 250 251 259 246 249 253 249 247 250 249 248
260 259 259 259 260 259 260 259 258 255 253 252 252 254 255 254 252 252 250 249 246 251 248 249 247 246 245 244 246 248 247 247 247 246 247 245 246 246 246 247 249 249 259
265 263 263 263 262 262 262 264 262 258 257 256 255 251 256 250 250 250 251 249 246 244 244 247 243 243 246 246 243 245 250 249 247 246 247 246 248 246 247 248 249 252 255
266 268 266 263 264 265 264 263 267 262 259 260 259 258 254 253 251 252 252 248 248 247 245 243 244 244 241 240 244 246 247 247 252 246 250 249 247 247 250 248 249 249 251
265 271 269 268 264 260 263 265 268 265 263 258 256 258 256 254 251 255 251 247 248 248 246 245 243 240 243 244 242 238 239 243 246 254 253 253 253 254 254 256 253 253 254
263 273 267 271 271 262 268 268 265 261 262 264 259 257 254 255 255 253 249 252 249 247 246 246 245 244 241 241 242 242 240 238 241 241 244 249 251 251 248 248 254 255 257
269 266 265 265 265 264 260 270 267 261 264 256 264 264 256 259 257 254 254 251 248 251 247 247 245 244 246 243 242 242 242 241 239 239 240 241 247 249 251 250 249 249 251
268 267 278 270 269 266 265 266 261 265 260 258 260 262 261 260 256 255 253 251 250 248 250 245 246 244 243 245 242 242 242 243 242 241 239 246 239 248 249 250 251 250 251
274 270 270 267 267 266 265 265 263 264 263 263 264 260 255 259 257 258 255 253 251 247 246 247 247 243 242 242 243 244 241 242 243 242 241 241 242 244 249 253 251 251 252
285 287 273 272 268 268 266 264 265 261 260 259 260 257 260 256 254 256 256 255 251 250 247 247 245 242 242 248 241 240 243 241 241 242 243 243 243 243 243 242 251 253 252
292 289 278 273 271 268 268 269 266 263 260 260 259 259 255 257 255 254 253 255 252 250 251 248 244 245 244 243 248 240 240 241 244 242 243 243 243 244 244 245 244 245 249
287 288 279 274 269 266 266 266 267 264 262 262 261 260 260 258 258 253 254 252 252 251 250 248 249 247 244 243 243 247 242 240 240 242 244 244 243 245 245 245 246 246 247